Home   Weather   Königs Wusterhausen   Past weeks

Flag for Germany Past Weather in Königs Wusterhausen, Brandenburg, Germany — Yesterday and Last 2 Weeks

Now
46 °F

Light rain. Passing clouds.


Feels Like: 41 °F
Forecast: 43 / 46 °F
Wind: 12 mph from West

Location: Berlin-Schoenefeld

Current Time: Dec 10, 2016 at 5:46:58 pm

Latest Report: Dec 10, 2016 at 5:20 pm


Visibility: N/A

Pressure: 30.09 "Hg

Humidity: 93%

Dew Point: 45 °F

Location of Königs WusterhausenLocation

Past Weather in Königs Wusterhausen — Graph

°F

Königs Wusterhausen Temperature Yesterday

Maximum temperature yesterday: 48 °F (at 1:50 pm)
Minimum temperature yesterday: 39 °F (at 12:20 am)
Average temperature yesterday: 45 °F

High & Low Weather Summary for the Past Weeks

 TemperatureHumidityPressure
High52 °F (Dec 10, 12:20 pm)100% (Nov 25, 4:20 pm)30.57 "Hg (Nov 25, 4:20 pm)
Low19 °F (Nov 29, 2:20 am)56% (Nov 28, 1:50 pm)29.74 "Hg (Dec 1, 10:20 pm)
Average35 °F87%30.24 "Hg
* Reported Nov 25 4:20 pm — Dec 10 4:20 pm, Königs Wusterhausen, Weather by CustomWeather, © 2016

Note: Actual official high and low records may vary slightly from our data, if they occured in-between our weather recording intervals... More about our weather records

Advertising

Königs Wusterhausen Weather History for the Previous 24 Hours

Scroll right to see more
 ConditionsComfort  
Time TempWeatherWind HumidityBarometerVisibility
4:20 pm
Sat, Dec 10
48 °FLight rain. Passing clouds.14 mph82%30.09 "HgN/A
3:50 pm48 °FPartly sunny.15 mph82%30.09 "HgN/A
3:20 pm48 °FPartly sunny.16 mph82%30.09 "HgN/A
2:50 pm50 °FLight rain. Partly sunny.18 mph76%30.09 "HgN/A
2:20 pm50 °FPartly sunny.16 mph71%30.07 "HgN/A
1:50 pm50 °FPartly sunny.17 mph76%30.07 "HgN/A
1:20 pm52 °FBroken clouds.20 mph72%30.07 "HgN/A
12:50 pm52 °FBroken clouds.14 mph72%30.07 "HgN/A
12:20 pm52 °FPartly sunny.14 mph77%30.07 "HgN/A
11:50 am50 °FSunny.14 mph82%30.09 "Hg10 mi
11:20 am50 °FSunny.13 mph82%30.09 "Hg10 mi
10:50 am48 °FSunny.12 mph82%30.09 "Hg10 mi
10:20 am48 °FSunny.10 mph82%30.09 "Hg10 mi
9:50 am46 °FSunny.9 mph87%30.09 "Hg10 mi
9:20 am46 °FSunny.7 mph87%30.09 "Hg10 mi
8:50 am46 °FSunny.8 mph87%30.09 "Hg10 mi
8:20 am46 °FSunny.9 mph87%30.12 "Hg10 mi
7:50 am46 °FClear.12 mph87%30.12 "Hg10 mi
7:20 am46 °FClear.9 mph87%30.12 "Hg10 mi
6:50 am46 °FClear.8 mph87%30.09 "Hg10 mi
6:20 am46 °FClear.9 mph87%30.12 "Hg10 mi
5:50 am46 °FPassing clouds.8 mph93%30.12 "HgN/A
5:20 am48 °FPassing clouds.10 mph87%30.12 "HgN/A
4:50 am48 °FPassing clouds.10 mph87%30.12 "HgN/A
4:20 am48 °FPassing clouds.12 mph87%30.12 "HgN/A
3:50 am48 °FPassing clouds.12 mph87%30.12 "HgN/A
3:20 am48 °FPassing clouds.12 mph87%30.15 "HgN/A
2:50 am46 °FPassing clouds.12 mph93%30.15 "HgN/A
2:20 am46 °FPassing clouds.12 mph93%30.15 "Hg6 mi
1:50 am46 °FPassing clouds.9 mph93%30.15 "Hg4 mi
1:20 am46 °FPassing clouds.10 mph93%30.18 "Hg4 mi
12:50 am46 °FPassing clouds.12 mph93%30.18 "Hg4 mi
12:20 am46 °FFog.10 mph93%30.18 "Hg3 mi
11:50 pm
Fri, Dec 9
45 °FFog.12 mph100%30.18 "Hg3 mi
11:20 pm46 °FPassing clouds.14 mph87%30.18 "Hg4 mi
10:50 pm46 °FPassing clouds.12 mph87%30.21 "Hg4 mi
10:20 pm46 °FCool.13 mph87%30.21 "HgN/A
9:50 pm46 °FFog.9 mph93%30.24 "Hg2 mi
9:20 pm46 °FDrizzle. Fog.10 mph93%30.24 "Hg2 mi
8:50 pm46 °FPartly cloudy.9 mph93%30.24 "Hg4 mi
8:20 pm46 °FPassing clouds.12 mph93%30.24 "HgN/A
7:50 pm48 °FPassing clouds.12 mph87%30.24 "HgN/A
7:20 pm48 °FPassing clouds.12 mph87%30.24 "HgN/A
6:50 pm48 °FPassing clouds.12 mph87%30.24 "HgN/A
6:20 pm48 °FPassing clouds.10 mph87%30.24 "HgN/A
5:50 pm48 °FPassing clouds.12 mph87%30.24 "HgN/A
5:20 pm48 °FPassing clouds.12 mph87%30.24 "HgN/A
Weather by CustomWeather, © 2016

See weather overviewHow to use our weather pages